Location: Silverdale
(47.6506°N, 122.6941°W)
Time: 01:40:55
(UTC+00:00)

A-11 Canister half - Pass Details

Date: 08 October 2022
Orbit: 1524 x 1685 km, 47.3° (Epoch: 05 December)

Event Time Altitude Azimuth Distance (km) Brightness Sun altitude
Rises 05:59:16 0° 288° (WNW) 4,726 12.2 -41.1°
Reaches altitude 10° 06:03:37 10° 270° (W) 3,765 11.4 -41.6°
Enters shadow 06:08:52 18° 236° (SW) 3,225 10.6 -42.1°
